Time,TemperatureF,DewpointF,PressureIn,WindDirection,WindDirectionDegrees,WindSpeedMPH,WindSpeedGustMPH,Humidity,HourlyPrecipIn,Conditions,Clouds,dailyrainin,SoftwareType,DateUTC
2013-12-24 00:02:00,38.0,37.7,30.00,NW,313,3.0,8.0,99,0.00,,,0.00,Wunderground v.1.15,2013-12-24 05:02:00,
2013-12-24 00:04:00,38.0,37.7,30.00,WNW,302,3.0,10.0,99,0.00,,,0.00,Wunderground v.1.15,2013-12-24 05:04:00,
2013-12-24 00:06:00,38.0,37.7,30.00,NNW,338,4.0,10.0,99,0.00,,,0.00,Wunderground v.1.15,2013-12-24 05:06:00,
2013-12-24 00:12:00,38.1,37.6,30.00,NNW,340,4.0,8.0,98,0.00,,,0.00,Wunderground v.1.15,2013-12-24 05:12:00,
2013-12-24 00:14:00,38.1,37.6,30.00,NNW,340,4.0,8.0,98,0.00,,,0.00,Wunderground v.1.15,2013-12-24 05:14:00,
2013-12-24 00:16:00,38.2,37.7,30.00,WNW,283,3.0,8.0,98,0.00,,,0.00,Wunderground v.1.15,2013-12-24 05:16:00,
2013-12-24 00:18:00,38.2,37.7,30.00,NNW,342,3.0,8.0,98,0.00,,,0.00,Wunderground v.1.15,2013-12-24 05:18:00,
2013-12-24 00:24:00,38.2,37.7,30.01,NNE,17,4.0,9.0,98,0.00,,,0.00,Wunderground v.1.15,2013-12-24 05:24:00,
2013-12-24 00:30:00,38.3,37.5,30.02,NW,319,4.0,4.0,97,0.00,,,0.00,Wunderground v.1.15,2013-12-24 05:30:00,
2013-12-24 00:36:00,38.3,37.5,30.01,NNE,19,3.0,5.0,97,0.00,,,0.00,Wunderground v.1.15,2013-12-24 05:36:00,
2013-12-24 00:42:00,38.3,37.3,30.01,North,355,3.0,3.0,96,0.00,,,0.00,Wunderground v.1.15,2013-12-24 05:42:00,
2013-12-24 00:48:00,38.3,37.3,30.00,North,360,4.0,4.0,96,0.00,,,0.00,Wunderground v.1.15,2013-12-24 05:48:00,
2013-12-24 00:54:00,38.3,37.3,30.01,North,349,3.0,3.0,96,0.00,,,0.00,Wunderground v.1.15,2013-12-24 05:54:00,
2013-12-24 01:00:00,38.2,37.2,30.00,North,360,3.0,3.0,96,0.00,,,0.00,Wunderground v.1.15,2013-12-24 06:00:00,
2013-12-24 01:08:00,38.2,37.2,30.01,North,350,3.0,5.0,96,0.00,,,0.00,Wunderground v.1.15,2013-12-24 06:08:00,
2013-12-24 01:14:00,38.1,37.1,30.00,ENE,63,4.0,10.0,96,0.00,,,0.00,Wunderground v.1.15,2013-12-24 06:14:00,
2013-12-24 01:20:00,38.2,36.9,30.01,North,5,4.0,4.0,95,0.00,,,0.00,Wunderground v.1.15,2013-12-24 06:20:00,
2013-12-24 01:26:00,38.2,37.2,30.04,West,262,3.0,4.0,96,0.00,,,0.00,Wunderground v.1.15,2013-12-24 06:26:00,
2013-12-24 01:32:00,38.1,36.8,30.05,West,281,3.0,5.0,95,0.00,,,0.00,Wunderground v.1.15,2013-12-24 06:32:00,
2013-12-24 01:38:00,38.1,36.8,30.04,NNE,20,3.0,5.0,95,0.00,,,0.00,Wunderground v.1.15,2013-12-24 06:38:00,
2013-12-24 01:44:00,38.0,36.7,30.03,North,355,3.0,4.0,95,0.00,,,0.00,Wunderground v.1.15,2013-12-24 06:44:00,
2013-12-24 01:50:00,38.0,36.7,30.02,North,351,3.0,4.0,95,0.00,,,0.00,Wunderground v.1.15,2013-12-24 06:50:00,
2013-12-24 01:56:00,37.9,36.6,30.02,NNE,19,4.0,6.0,95,0.00,,,0.00,Wunderground v.1.15,2013-12-24 06:56:00,
2013-12-24 02:02:00,37.8,36.5,30.02,North,360,4.0,4.0,95,0.00,,,0.00,Wunderground v.1.15,2013-12-24 07:02:00,
2013-12-24 02:08:00,37.8,36.5,30.03,NNE,20,4.0,4.0,95,0.00,,,0.00,Wunderground v.1.15,2013-12-24 07:08:00,
2013-12-24 02:14:00,37.8,36.5,30.04,NNW,341,3.0,3.0,95,0.00,,,0.00,Wunderground v.1.15,2013-12-24 07:14:00,
2013-12-24 02:20:00,37.8,36.5,30.04,NNE,20,3.0,4.0,95,0.00,,,0.00,Wunderground v.1.15,2013-12-24 07:20:00,
2013-12-24 02:28:00,37.7,36.1,30.04,North,11,3.0,8.0,94,0.00,,,0.00,Wunderground v.1.15,2013-12-24 07:28:00,
2013-12-24 02:34:00,37.7,36.1,30.04,NNE,15,4.0,6.0,94,0.00,,,0.00,Wunderground v.1.15,2013-12-24 07:34:00,
2013-12-24 02:40:00,37.7,36.1,30.05,North,5,4.0,5.0,94,0.00,,,0.00,Wunderground v.1.15,2013-12-24 07:40:00,
2013-12-24 02:46:00,37.6,35.8,30.05,North,355,4.0,7.0,93,0.00,,,0.00,Wunderground v.1.15,2013-12-24 07:46:00,
2013-12-24 02:52:00,37.6,35.8,30.05,NE,35,5.0,5.0,93,0.00,,,0.00,Wunderground v.1.15,2013-12-24 07:52:00,
2013-12-24 02:58:00,37.5,35.7,30.05,WNW,298,4.0,7.0,93,0.00,,,0.00,Wunderground v.1.15,2013-12-24 07:58:00,
2013-12-24 03:04:00,37.5,35.7,30.04,NW,320,4.0,5.0,93,0.00,,,0.00,Wunderground v.1.15,2013-12-24 08:04:00,
2013-12-24 03:10:00,37.4,35.6,30.04,West,279,4.0,9.0,93,0.00,,,0.00,Wunderground v.1.15,2013-12-24 08:10:00,
2013-12-24 03:16:00,37.4,35.3,30.04,North,355,4.0,9.0,92,0.00,,,0.00,Wunderground v.1.15,2013-12-24 08:16:00,
2013-12-24 03:22:00,37.3,35.2,30.04,NNE,25,4.0,4.0,92,0.00,,,0.00,Wunderground v.1.15,2013-12-24 08:22:00,
2013-12-24 03:28:00,37.2,35.1,30.04,NNE,23,4.0,7.0,92,0.00,,,0.00,Wunderground v.1.15,2013-12-24 08:28:00,
2013-12-24 03:34:00,37.1,34.7,30.03,North,9,4.0,10.0,91,0.00,,,0.00,Wunderground v.1.15,2013-12-24 08:34:00,
2013-12-24 03:40:00,37.1,34.7,30.03,North,5,4.0,6.0,91,0.00,,,0.00,Wunderground v.1.15,2013-12-24 08:40:00,
2013-12-24 03:46:00,36.9,34.5,30.02,North,355,4.0,6.0,91,0.00,,,0.00,Wunderground v.1.15,2013-12-24 08:46:00,
2013-12-24 03:52:00,36.9,34.5,30.03,North,350,3.0,6.0,91,0.00,,,0.00,Wunderground v.1.15,2013-12-24 08:52:00,
2013-12-24 03:58:00,36.8,34.4,30.03,North,355,3.0,6.0,91,0.00,,,0.00,Wunderground v.1.15,2013-12-24 08:58:00,
2013-12-24 04:04:00,36.7,34.6,30.04,NNW,331,2.0,4.0,92,0.00,,,0.00,Wunderground v.1.15,2013-12-24 09:04:00,
2013-12-24 04:10:00,36.6,34.5,30.04,NNE,19,2.0,2.0,92,0.00,,,0.00,Wunderground v.1.15,2013-12-24 09:10:00,
2013-12-24 04:16:00,36.4,34.0,30.03,North,5,2.0,5.0,91,0.00,,,0.00,Wunderground v.1.15,2013-12-24 09:16:00,
2013-12-24 04:22:00,36.2,33.5,30.03,North,360,3.0,3.0,90,0.00,,,0.00,Wunderground v.1.15,2013-12-24 09:22:00,
2013-12-24 04:28:00,36.1,33.2,30.03,North,355,3.0,3.0,89,0.00,,,0.00,Wunderground v.1.15,2013-12-24 09:28:00,
2013-12-24 04:34:00,35.9,33.0,30.03,WNW,295,3.0,3.0,89,0.00,,,0.00,Wunderground v.1.15,2013-12-24 09:34:00,
2013-12-24 04:40:00,35.7,32.5,30.03,North,355,3.0,3.0,88,0.00,,,0.00,Wunderground v.1.15,2013-12-24 09:40:00,
2013-12-24 04:46:00,35.6,32.1,30.04,NNW,330,3.0,5.0,87,0.00,,,0.00,Wunderground v.1.15,2013-12-24 09:46:00,
2013-12-24 04:52:00,35.5,32.0,30.05,NW,319,2.0,2.0,87,0.00,,,0.00,Wunderground v.1.15,2013-12-24 09:52:00,
2013-12-24 04:58:00,35.4,31.9,30.06,NNW,339,2.0,2.0,87,0.00,,,0.00,Wunderground v.1.15,2013-12-24 09:58:00,
2013-12-24 05:04:00,35.3,31.8,30.04,North,355,2.0,4.0,87,0.00,,,0.00,Wunderground v.1.15,2013-12-24 10:04:00,
2013-12-24 05:10:00,35.2,31.7,30.03,NNW,342,3.0,5.0,87,0.00,,,0.00,Wunderground v.1.15,2013-12-24 10:10:00,
2013-12-24 05:16:00,35.1,31.6,30.03,North,355,3.0,5.0,87,0.00,,,0.00,Wunderground v.1.15,2013-12-24 10:16:00,
2013-12-24 05:22:00,35.0,31.5,30.03,North,360,3.0,4.0,87,0.00,,,0.00,Wunderground v.1.15,2013-12-24 10:22:00,
2013-12-24 05:28:00,34.9,31.4,30.05,NW,317,3.0,4.0,87,0.00,,,0.00,Wunderground v.1.15,2013-12-24 10:28:00,
2013-12-24 05:34:00,34.8,31.3,30.04,North,360,3.0,6.0,87,0.00,,,0.00,Wunderground v.1.15,2013-12-24 10:34:00,
2013-12-24 05:40:00,34.8,31.3,30.05,North,355,3.0,6.0,87,0.00,,,0.00,Wunderground v.1.15,2013-12-24 10:40:00,
2013-12-24 05:46:00,34.7,30.9,30.06,North,5,2.0,7.0,86,0.00,,,0.00,Wunderground v.1.15,2013-12-24 10:46:00,
2013-12-24 05:52:00,34.7,30.9,30.06,NW,315,2.0,2.0,86,0.00,,,0.00,Wunderground v.1.15,2013-12-24 10:52:00,
2013-12-24 05:58:00,34.6,30.8,30.04,North,5,2.0,3.0,86,0.00,,,0.00,Wunderground v.1.15,2013-12-24 10:58:00,
2013-12-24 06:04:00,34.5,30.7,30.03,NNW,346,3.0,5.0,86,0.00,,,0.00,Wunderground v.1.15,2013-12-24 11:04:00,
2013-12-24 06:10:00,34.4,30.6,30.03,North,355,3.0,3.0,86,0.00,,,0.00,Wunderground v.1.15,2013-12-24 11:10:00,
2013-12-24 06:16:00,34.3,30.5,30.03,NW,323,3.0,4.0,86,0.00,,,0.00,Wunderground v.1.15,2013-12-24 11:16:00,
2013-12-24 06:22:00,34.3,30.5,30.03,WNW,284,3.0,3.0,86,0.00,,,0.00,Wunderground v.1.15,2013-12-24 11:22:00,
2013-12-24 06:28:00,34.2,30.4,30.03,NNW,344,3.0,4.0,86,0.00,,,0.00,Wunderground v.1.15,2013-12-24 11:28:00,
2013-12-24 06:34:00,34.2,30.4,30.04,North,10,3.0,5.0,86,0.00,,,0.00,Wunderground v.1.15,2013-12-24 11:34:00,
2013-12-24 06:40:00,34.1,30.4,30.03,NW,318,3.0,7.0,86,0.00,,,0.00,Wunderground v.1.15,2013-12-24 11:40:00,
2013-12-24 06:46:00,34.0,30.0,30.04,North,360,3.0,7.0,85,0.00,,,0.00,Wunderground v.1.15,2013-12-24 11:46:00,
2013-12-24 06:52:00,34.0,30.0,30.06,North,355,2.0,3.0,85,0.00,,,0.00,Wunderground v.1.15,2013-12-24 11:52:00,
2013-12-24 06:58:00,34.0,29.7,30.07,North,360,3.0,6.0,84,0.00,,,0.00,Wunderground v.1.15,2013-12-24 11:58:00,
2013-12-24 07:04:00,33.9,29.6,30.07,NNW,331,3.0,5.0,84,0.00,,,0.00,Wunderground v.1.15,2013-12-24 12:04:00,
2013-12-24 07:10:00,33.9,29.3,30.07,NNW,336,3.0,3.0,83,0.00,,,0.00,Wunderground v.1.15,2013-12-24 12:10:00,
2013-12-24 07:16:00,33.9,29.6,30.04,NE,54,3.0,4.0,84,0.00,,,0.00,Wunderground v.1.15,2013-12-24 12:16:00,
2013-12-24 07:22:00,33.8,29.2,30.07,NNW,346,4.0,4.0,83,0.00,,,0.00,Wunderground v.1.15,2013-12-24 12:22:00,
2013-12-24 07:28:00,33.7,28.8,30.06,WNW,294,4.0,4.0,82,0.00,,,0.00,Wunderground v.1.15,2013-12-24 12:28:00,
2013-12-24 07:34:00,33.6,29.0,30.07,North,11,3.0,5.0,83,0.00,,,0.00,Wunderground v.1.15,2013-12-24 12:34:00,
2013-12-24 07:40:00,33.5,28.6,30.07,WNW,299,4.0,4.0,82,0.00,,,0.00,Wunderground v.1.15,2013-12-24 12:40:00,
2013-12-24 07:46:00,33.4,28.8,30.07,North,349,3.0,7.0,83,0.00,,,0.00,Wunderground v.1.15,2013-12-24 12:46:00,
2013-12-24 07:52:00,33.4,28.8,30.05,North,355,3.0,5.0,83,0.00,,,0.00,Wunderground v.1.15,2013-12-24 12:52:00,
2013-12-24 07:58:00,33.2,28.6,30.04,North,9,4.0,7.0,83,0.00,,,0.00,Wunderground v.1.15,2013-12-24 12:58:00,
2013-12-24 08:04:00,33.1,28.5,30.03,NNE,22,4.0,7.0,83,0.00,,,0.00,Wunderground v.1.15,2013-12-24 13:04:00,
2013-12-24 08:10:00,33.1,28.5,30.03,NNE,19,5.0,5.0,83,0.00,,,0.00,Wunderground v.1.15,2013-12-24 13:10:00,
2013-12-24 08:18:00,33.1,28.2,30.03,NNW,344,5.0,7.0,82,0.00,,,0.00,Wunderground v.1.15,2013-12-24 13:18:00,
2013-12-24 08:24:00,33.2,28.6,30.03,North,355,4.0,8.0,83,0.00,,,0.00,Wunderground v.1.15,2013-12-24 13:24:00,
2013-12-24 08:30:00,33.2,28.0,30.03,North,355,4.0,4.0,81,0.00,,,0.00,Wunderground v.1.15,2013-12-24 13:30:00,
2013-12-24 08:36:00,33.1,27.6,30.06,WNW,302,5.0,6.0,80,0.00,,,0.00,Wunderground v.1.15,2013-12-24 13:36:00,
2013-12-24 08:42:00,33.1,27.3,30.07,NNW,348,4.0,4.0,79,0.00,,,0.00,Wunderground v.1.15,2013-12-24 13:42:00,
2013-12-24 08:48:00,33.1,27.6,30.06,North,355,3.0,5.0,80,0.00,,,0.00,Wunderground v.1.15,2013-12-24 13:48:00,
2013-12-24 08:54:00,33.1,27.3,30.07,North,355,3.0,5.0,79,0.00,,,0.00,Wunderground v.1.15,2013-12-24 13:54:00,
2013-12-24 09:00:00,33.0,27.2,30.07,North,360,3.0,5.0,79,0.00,,,0.00,Wunderground v.1.15,2013-12-24 14:00:00,
2013-12-24 09:06:00,33.0,27.2,30.08,NNW,346,3.0,6.0,79,0.00,,,0.00,Wunderground v.1.15,2013-12-24 14:06:00,
2013-12-24 09:12:00,33.2,27.4,30.07,NW,323,3.0,4.0,79,0.00,,,0.00,Wunderground v.1.15,2013-12-24 14:12:00,
2013-12-24 09:18:00,33.1,27.3,30.09,NW,307,2.0,7.0,79,0.00,,,0.00,Wunderground v.1.15,2013-12-24 14:18:00,
2013-12-24 09:24:00,33.1,27.0,30.07,West,265,2.0,2.0,78,0.00,,,0.00,Wunderground v.1.15,2013-12-24 14:24:00,
2013-12-24 09:30:00,33.0,26.9,30.06,North,355,3.0,3.0,78,0.00,,,0.00,Wunderground v.1.15,2013-12-24 14:30:00,
2013-12-24 09:36:00,32.9,26.5,30.07,WNW,296,3.0,6.0,77,0.00,,,0.00,Wunderground v.1.15,2013-12-24 14:36:00,
2013-12-24 09:42:00,32.9,26.2,30.08,NNW,328,3.0,5.0,76,0.00,,,0.00,Wunderground v.1.15,2013-12-24 14:42:00,
2013-12-24 09:48:00,32.8,25.7,30.06,NNE,12,4.0,9.0,75,0.00,,,0.00,Wunderground v.1.15,2013-12-24 14:48:00,
2013-12-24 09:54:00,32.8,25.7,30.04,North,355,4.0,8.0,75,0.00,,,0.00,Wunderground v.1.15,2013-12-24 14:54:00,
2013-12-24 10:00:00,32.8,25.7,30.04,NNW,335,3.0,4.0,75,0.00,,,0.00,Wunderground v.1.15,2013-12-24 15:00:00,
2013-12-24 10:06:00,32.8,25.1,30.03,North,5,4.0,7.0,73,0.00,,,0.00,Wunderground v.1.15,2013-12-24 15:06:00,
2013-12-24 10:12:00,32.8,25.1,30.02,NNW,333,6.0,11.0,73,0.00,,,0.00,Wunderground v.1.15,2013-12-24 15:12:00,
2013-12-24 10:20:00,32.8,24.8,30.03,North,5,5.0,5.0,72,0.00,,,0.00,Wunderground v.1.15,2013-12-24 15:20:00,
2013-12-24 10:26:00,32.7,24.7,30.01,WNW,297,4.0,5.0,72,0.00,,,0.00,Wunderground v.1.15,2013-12-24 15:26:00,
2013-12-24 10:32:00,32.6,23.9,30.02,NNW,339,4.0,4.0,70,0.00,,,0.00,Wunderground v.1.15,2013-12-24 15:32:00,
2013-12-24 10:38:00,32.5,24.1,30.05,NNW,340,4.0,9.0,71,0.00,,,0.00,Wunderground v.1.15,2013-12-24 15:38:00,
2013-12-24 10:44:00,32.5,24.1,30.05,NNW,347,4.0,4.0,71,0.00,,,0.00,Wunderground v.1.15,2013-12-24 15:44:00,
2013-12-24 10:50:00,32.5,24.1,30.04,WNW,303,3.0,3.0,71,0.00,,,0.00,Wunderground v.1.15,2013-12-24 15:50:00,
2013-12-24 10:56:00,32.4,24.0,30.05,North,349,3.0,4.0,71,0.00,,,0.00,Wunderground v.1.15,2013-12-24 15:56:00,
2013-12-24 11:02:00,32.3,23.9,30.05,North,355,2.0,4.0,71,0.00,,,0.00,Wunderground v.1.15,2013-12-24 16:02:00,
2013-12-24 11:10:00,32.3,24.3,30.05,NNW,327,2.0,2.0,72,0.00,,,0.00,Wunderground v.1.15,2013-12-24 16:10:00,
2013-12-24 11:16:00,32.4,24.0,30.04,North,355,1.0,3.0,71,0.00,,,0.00,Wunderground v.1.15,2013-12-24 16:16:00,
2013-12-24 11:22:00,32.3,23.6,30.02,North,355,2.0,2.0,70,0.00,,,0.00,Wunderground v.1.15,2013-12-24 16:22:00,
2013-12-24 11:30:00,32.3,23.6,30.02,NNW,333,3.0,6.0,70,0.00,,,0.00,Wunderground v.1.15,2013-12-24 16:30:00,
2013-12-24 11:36:00,32.3,23.3,30.04,NNW,346,4.0,4.0,69,0.00,,,0.00,Wunderground v.1.15,2013-12-24 16:36:00,
2013-12-24 11:42:00,32.3,23.6,30.04,NNE,14,3.0,3.0,70,0.00,,,0.00,Wunderground v.1.15,2013-12-24 16:42:00,
2013-12-24 11:48:00,32.4,23.7,30.02,NNE,15,2.0,5.0,70,0.00,,,0.00,Wunderground v.1.15,2013-12-24 16:48:00,
2013-12-24 11:54:00,32.6,24.2,30.01,NNE,23,2.0,2.0,71,0.00,,,0.00,Wunderground v.1.15,2013-12-24 16:54:00,
2013-12-24 12:00:00,32.6,22.8,30.01,North,9,3.0,3.0,67,0.00,,,0.00,Wunderground v.1.15,2013-12-24 17:00:00,
2013-12-24 12:06:00,32.5,23.5,30.01,NNW,339,4.0,5.0,69,0.00,,,0.00,Wunderground v.1.15,2013-12-24 17:06:00,
2013-12-24 12:12:00,32.5,23.1,30.01,North,360,4.0,7.0,68,0.00,,,0.00,Wunderground v.1.15,2013-12-24 17:12:00,
2013-12-24 12:18:00,32.5,23.1,30.00,North,5,4.0,7.0,68,0.00,,,0.00,Wunderground v.1.15,2013-12-24 17:18:00,
2013-12-24 12:24:00,32.5,22.8,30.01,NNE,15,4.0,8.0,67,0.00,,,0.00,Wunderground v.1.15,2013-12-24 17:24:00,
2013-12-24 12:30:00,32.6,23.2,30.00,North,355,4.0,4.0,68,0.00,,,0.00,Wunderground v.1.15,2013-12-24 17:30:00,
2013-12-24 12:36:00,32.8,23.7,30.00,NNW,332,4.0,4.0,69,0.00,,,0.00,Wunderground v.1.15,2013-12-24 17:36:00,
2013-12-24 12:42:00,32.9,23.1,30.00,WNW,294,4.0,4.0,67,0.00,,,0.00,Wunderground v.1.15,2013-12-24 17:42:00,
2013-12-24 12:48:00,32.8,23.0,29.98,NE,42,5.0,11.0,67,0.00,,,0.00,Wunderground v.1.15,2013-12-24 17:48:00,
2013-12-24 12:54:00,32.9,23.5,29.98,NNW,346,5.0,11.0,68,0.00,,,0.00,Wunderground v.1.15,2013-12-24 17:54:00,
2013-12-24 13:00:00,33.0,23.6,29.97,NNE,17,4.0,6.0,68,0.00,,,0.00,Wunderground v.1.15,2013-12-24 18:00:00,
2013-12-24 13:08:00,32.8,23.4,29.98,WNW,293,5.0,6.0,68,0.00,,,0.00,Wunderground v.1.15,2013-12-24 18:08:00,
2013-12-24 13:14:00,32.7,22.9,29.98,North,355,6.0,18.0,67,0.00,,,0.00,Wunderground v.1.15,2013-12-24 18:14:00,
2013-12-24 13:20:00,32.7,23.3,29.99,North,355,6.0,6.0,68,0.00,,,0.00,Wunderground v.1.15,2013-12-24 18:20:00,
2013-12-24 13:26:00,32.6,22.8,29.99,North,350,5.0,7.0,67,0.00,,,0.00,Wunderground v.1.15,2013-12-24 18:26:00,
2013-12-24 13:32:00,32.6,22.8,29.99,WNW,301,5.0,5.0,67,0.00,,,0.00,Wunderground v.1.15,2013-12-24 18:32:00,
2013-12-24 13:38:00,32.8,22.7,29.99,NNE,25,5.0,9.0,66,0.00,,,0.00,Wunderground v.1.15,2013-12-24 18:38:00,
2013-12-24 13:46:00,33.0,22.9,29.98,NNW,327,8.0,13.0,66,0.00,,,0.00,Wunderground v.1.15,2013-12-24 18:46:00,
2013-12-24 13:52:00,33.2,22.7,29.98,North,9,7.0,7.0,65,0.00,,,0.00,Wunderground v.1.15,2013-12-24 18:52:00,
2013-12-24 13:58:00,33.1,23.0,29.99,North,350,5.0,7.0,66,0.00,,,0.00,Wunderground v.1.15,2013-12-24 18:58:00,
2013-12-24 14:04:00,32.9,22.8,29.99,NNW,348,5.0,10.0,66,0.00,,,0.00,Wunderground v.1.15,2013-12-24 19:04:00,
2013-12-24 14:10:00,32.8,22.7,29.99,NW,304,6.0,6.0,66,0.00,,,0.00,Wunderground v.1.15,2013-12-24 19:10:00,
2013-12-24 14:16:00,32.8,22.7,29.99,NNE,24,5.0,6.0,66,0.00,,,0.00,Wunderground v.1.15,2013-12-24 19:16:00,
2013-12-24 14:22:00,33.0,22.9,29.99,WNW,289,5.0,5.0,66,0.00,,,0.00,Wunderground v.1.15,2013-12-24 19:22:00,
2013-12-24 14:28:00,33.3,22.8,29.99,NNE,22,4.0,5.0,65,0.00,,,0.00,Wunderground v.1.15,2013-12-24 19:28:00,
2013-12-24 14:34:00,33.5,23.0,30.00,NNW,333,5.0,7.0,65,0.00,,,0.00,Wunderground v.1.15,2013-12-24 19:34:00,
2013-12-24 14:40:00,33.8,22.9,30.00,North,5,5.0,10.0,64,0.00,,,0.00,Wunderground v.1.15,2013-12-24 19:40:00,
2013-12-24 14:46:00,33.6,22.3,30.00,ENE,63,6.0,10.0,63,0.00,,,0.00,Wunderground v.1.15,2013-12-24 19:46:00,
2013-12-24 14:52:00,33.6,22.3,30.00,North,355,6.0,6.0,63,0.00,,,0.00,Wunderground v.1.15,2013-12-24 19:52:00,
2013-12-24 14:58:00,33.8,22.5,30.00,NNW,346,4.0,6.0,63,0.00,,,0.00,Wunderground v.1.15,2013-12-24 19:58:00,
2013-12-24 15:04:00,33.9,22.2,30.00,NW,317,3.0,4.0,62,0.00,,,0.00,Wunderground v.1.15,2013-12-24 20:04:00,
2013-12-24 15:10:00,33.9,22.2,30.00,NNE,17,4.0,4.0,62,0.00,,,0.00,Wunderground v.1.15,2013-12-24 20:10:00,
2013-12-24 15:16:00,33.8,22.1,30.01,NNW,334,3.0,6.0,62,0.00,,,0.00,Wunderground v.1.15,2013-12-24 20:16:00,
2013-12-24 15:22:00,33.6,22.0,30.01,NNW,336,4.0,4.0,62,0.00,,,0.00,Wunderground v.1.15,2013-12-24 20:22:00,
2013-12-24 15:28:00,33.6,22.0,30.01,NNW,330,4.0,6.0,62,0.00,,,0.00,Wunderground v.1.15,2013-12-24 20:28:00,
2013-12-24 15:34:00,33.4,21.8,30.02,NW,324,4.0,4.0,62,0.00,,,0.00,Wunderground v.1.15,2013-12-24 20:34:00,
2013-12-24 15:40:00,33.1,21.5,30.02,North,355,4.0,4.0,62,0.00,,,0.00,Wunderground v.1.15,2013-12-24 20:40:00,
2013-12-24 15:46:00,32.8,21.6,30.02,NNE,21,4.0,6.0,63,0.00,,,0.00,Wunderground v.1.15,2013-12-24 20:46:00,
2013-12-24 15:52:00,32.5,21.3,30.02,North,9,3.0,3.0,63,0.00,,,0.00,Wunderground v.1.15,2013-12-24 20:52:00,
2013-12-24 15:58:00,32.3,21.5,30.02,North,355,3.0,3.0,64,0.00,,,0.00,Wunderground v.1.15,2013-12-24 20:58:00,
2013-12-24 16:04:00,32.1,21.3,30.02,North,11,2.0,3.0,64,0.00,,,0.00,Wunderground v.1.15,2013-12-24 21:04:00,
2013-12-24 16:10:00,31.9,21.5,30.02,North,351,1.0,2.0,65,0.00,,,0.00,Wunderground v.1.15,2013-12-24 21:10:00,
2013-12-24 16:16:00,31.7,21.6,30.02,North,10,0.0,2.0,66,0.00,,,0.00,Wunderground v.1.15,2013-12-24 21:16:00,
2013-12-24 16:22:00,31.5,21.4,30.03,North,355,0.0,0.0,66,0.00,,,0.00,Wunderground v.1.15,2013-12-24 21:22:00,
2013-12-24 16:28:00,31.3,21.6,30.03,North,355,0.0,0.0,67,0.00,,,0.00,Wunderground v.1.15,2013-12-24 21:28:00,
2013-12-24 16:34:00,31.2,21.5,30.03,NW,304,0.0,1.0,67,0.00,,,0.00,Wunderground v.1.15,2013-12-24 21:34:00,
2013-12-24 16:40:00,30.8,21.5,30.03,NNW,327,0.0,0.0,68,0.00,,,0.00,Wunderground v.1.15,2013-12-24 21:40:00,
2013-12-24 16:46:00,30.6,21.3,30.03,NW,310,0.0,1.0,68,0.00,,,0.00,Wunderground v.1.15,2013-12-24 21:46:00,
2013-12-24 16:52:00,30.4,21.4,30.03,NW,311,0.0,1.0,69,0.00,,,0.00,Wunderground v.1.15,2013-12-24 21:52:00,
2013-12-24 16:58:00,30.3,21.0,30.04,NW,315,0.0,1.0,68,0.00,,,0.00,Wunderground v.1.15,2013-12-24 21:58:00,
2013-12-24 17:04:00,30.3,21.3,30.04,NW,316,0.0,0.0,69,0.00,,,0.00,Wunderground v.1.15,2013-12-24 22:04:00,
2013-12-24 17:10:00,30.2,21.2,30.04,NW,315,0.0,0.0,69,0.00,,,0.00,Wunderground v.1.15,2013-12-24 22:10:00,
2013-12-24 17:16:00,30.2,20.9,30.05,NW,314,0.0,1.0,68,0.00,,,0.00,Wunderground v.1.15,2013-12-24 22:16:00,
2013-12-24 17:22:00,30.4,20.7,30.05,NW,311,1.0,1.0,67,0.00,,,0.00,Wunderground v.1.15,2013-12-24 22:22:00,
2013-12-24 17:28:00,30.6,20.2,30.05,WNW,302,1.0,1.0,65,0.00,,,0.00,Wunderground v.1.15,2013-12-24 22:28:00,
2013-12-24 17:34:00,30.7,20.3,30.06,WNW,298,1.0,2.0,65,0.00,,,0.00,Wunderground v.1.15,2013-12-24 22:34:00,
2013-12-24 17:40:00,30.8,20.4,30.06,WNW,298,0.0,1.0,65,0.00,,,0.00,Wunderground v.1.15,2013-12-24 22:40:00,
2013-12-24 17:46:00,30.9,19.8,30.06,NW,323,1.0,1.0,63,0.00,,,0.00,Wunderground v.1.15,2013-12-24 22:46:00,
2013-12-24 17:52:00,31.0,19.9,30.06,NNW,332,1.0,2.0,63,0.00,,,0.00,Wunderground v.1.15,2013-12-24 22:52:00,
2013-12-24 17:58:00,31.0,19.5,30.06,North,5,1.0,2.0,62,0.00,,,0.00,Wunderground v.1.15,2013-12-24 22:58:00,
2013-12-24 18:04:00,31.1,19.6,30.06,North,9,2.0,2.0,62,0.00,,,0.00,Wunderground v.1.15,2013-12-24 23:04:00,
2013-12-24 18:10:00,31.2,18.9,30.07,North,9,3.0,6.0,60,0.00,,,0.00,Wunderground v.1.15,2013-12-24 23:10:00,
2013-12-24 18:16:00,31.3,19.4,30.07,North,360,3.0,6.0,61,0.00,,,0.00,Wunderground v.1.15,2013-12-24 23:16:00,
2013-12-24 18:22:00,31.3,19.4,30.07,NE,47,2.0,2.0,61,0.00,,,0.00,Wunderground v.1.15,2013-12-24 23:22:00,
2013-12-24 18:28:00,31.3,19.0,30.07,North,5,2.0,3.0,60,0.00,,,0.00,Wunderground v.1.15,2013-12-24 23:28:00,
2013-12-24 18:34:00,31.3,19.0,30.07,NNW,332,3.0,3.0,60,0.00,,,0.00,Wunderground v.1.15,2013-12-24 23:34:00,
2013-12-24 18:40:00,31.3,19.4,30.08,North,355,2.0,3.0,61,0.00,,,0.00,Wunderground v.1.15,2013-12-24 23:40:00,
2013-12-24 18:46:00,31.4,19.1,30.08,NNW,341,3.0,6.0,60,0.00,,,0.00,Wunderground v.1.15,2013-12-24 23:46:00,
2013-12-24 18:52:00,31.5,19.2,30.08,NNW,327,4.0,8.0,60,0.00,,,0.00,Wunderground v.1.15,2013-12-24 23:52:00,
2013-12-24 18:58:00,31.5,19.6,30.08,NE,34,5.0,7.0,61,0.00,,,0.00,Wunderground v.1.15,2013-12-24 23:58:00,
2013-12-24 19:04:00,31.5,20.3,30.08,North,9,5.0,5.0,63,0.00,,,0.00,Wunderground v.1.15,2013-12-25 00:04:00,
2013-12-24 19:10:00,31.3,20.5,30.09,North,350,4.0,4.0,64,0.00,,,0.00,Wunderground v.1.15,2013-12-25 00:10:00,
2013-12-24 19:16:00,31.1,21.1,30.09,North,5,3.0,4.0,66,0.00,,,0.00,Wunderground v.1.15,2013-12-25 00:16:00,
2013-12-24 19:22:00,31.0,21.3,30.09,NNE,13,3.0,3.0,67,0.00,,,0.00,Wunderground v.1.15,2013-12-25 00:22:00,
2013-12-24 19:28:00,30.9,21.6,30.10,North,360,2.0,5.0,68,0.00,,,0.00,Wunderground v.1.15,2013-12-25 00:28:00,
2013-12-24 19:34:00,30.8,21.8,30.10,NNE,25,2.0,2.0,69,0.00,,,0.00,Wunderground v.1.15,2013-12-25 00:34:00,
2013-12-24 19:40:00,30.7,22.1,30.10,NW,311,2.0,2.0,70,0.00,,,0.00,Wunderground v.1.15,2013-12-25 00:40:00,
2013-12-24 19:46:00,30.7,22.4,30.10,NNE,21,1.0,2.0,71,0.00,,,0.00,Wunderground v.1.15,2013-12-25 00:46:00,
2013-12-24 19:52:00,30.6,22.3,30.10,NNW,338,0.0,1.0,71,0.00,,,0.00,Wunderground v.1.15,2013-12-25 00:52:00,
2013-12-24 19:58:00,30.6,22.3,30.10,NNW,338,0.0,1.0,71,0.00,,,0.00,Wunderground v.1.15,2013-12-25 00:58:00,
2013-12-24 20:04:00,30.6,22.6,30.10,NNW,345,0.0,4.0,72,0.00,,,0.00,Wunderground v.1.15,2013-12-25 01:04:00,
2013-12-24 20:10:00,30.2,23.2,30.10,WNW,288,2.0,2.0,75,0.00,,,0.00,Wunderground v.1.15,2013-12-25 01:10:00,
2013-12-24 20:16:00,29.9,23.6,30.11,North,355,3.0,3.0,77,0.00,,,0.00,Wunderground v.1.15,2013-12-25 01:16:00,
2013-12-24 20:22:00,29.7,23.7,30.11,WNW,297,2.0,2.0,78,0.00,,,0.00,Wunderground v.1.15,2013-12-25 01:22:00,
2013-12-24 20:28:00,29.6,23.9,30.10,WNW,290,1.0,6.0,79,0.00,,,0.00,Wunderground v.1.15,2013-12-25 01:28:00,
2013-12-24 20:34:00,29.4,24.0,30.11,West,266,1.0,3.0,80,0.00,,,0.00,Wunderground v.1.15,2013-12-25 01:34:00,
2013-12-24 20:40:00,29.4,24.3,30.11,North,5,1.0,3.0,81,0.00,,,0.00,Wunderground v.1.15,2013-12-25 01:40:00,
2013-12-24 20:46:00,29.3,24.2,30.11,WNW,288,1.0,3.0,81,0.00,,,0.00,Wunderground v.1.15,2013-12-25 01:46:00,
2013-12-24 20:52:00,29.3,24.2,30.11,WNW,292,1.0,1.0,81,0.00,,,0.00,Wunderground v.1.15,2013-12-25 01:52:00,
2013-12-24 20:58:00,29.3,24.2,30.11,WNW,292,0.0,1.0,81,0.00,,,0.00,Wunderground v.1.15,2013-12-25 01:58:00,
2013-12-24 21:04:00,29.3,23.9,30.11,WNW,286,1.0,4.0,80,0.00,,,0.00,Wunderground v.1.15,2013-12-25 02:04:00,
2013-12-24 21:10:00,29.5,22.9,30.11,NW,315,2.0,4.0,76,0.00,,,0.00,Wunderground v.1.15,2013-12-25 02:10:00,
2013-12-24 21:16:00,29.7,22.4,30.11,North,351,2.0,4.0,74,0.00,,,0.00,Wunderground v.1.15,2013-12-25 02:16:00,
2013-12-24 21:22:00,29.8,21.9,30.11,West,268,2.0,2.0,72,0.00,,,0.00,Wunderground v.1.15,2013-12-25 02:22:00,
2013-12-24 21:30:00,29.9,21.0,30.12,WNW,292,2.0,2.0,69,0.00,,,0.00,Wunderground v.1.15,2013-12-25 02:30:00,
2013-12-24 21:36:00,29.9,19.9,30.12,North,360,2.0,2.0,66,0.00,,,0.00,Wunderground v.1.15,2013-12-25 02:36:00,
2013-12-24 21:42:00,29.9,19.9,30.12,NW,305,2.0,3.0,66,0.00,,,0.00,Wunderground v.1.15,2013-12-25 02:42:00,
2013-12-24 21:48:00,29.8,19.5,30.12,WNW,283,2.0,5.0,65,0.00,,,0.00,Wunderground v.1.15,2013-12-25 02:48:00,
2013-12-24 21:54:00,29.7,19.0,30.12,WSW,248,2.0,2.0,64,0.00,,,0.00,Wunderground v.1.15,2013-12-25 02:54:00,
2013-12-24 22:00:00,29.7,19.0,30.13,WNW,286,1.0,2.0,64,0.00,,,0.00,Wunderground v.1.15,2013-12-25 03:00:00,
2013-12-24 22:06:00,29.6,18.5,30.13,WNW,288,1.0,3.0,63,0.00,,,0.00,Wunderground v.1.15,2013-12-25 03:06:00,
2013-12-24 22:12:00,29.6,18.9,30.13,WNW,293,2.0,3.0,64,0.00,,,0.00,Wunderground v.1.15,2013-12-25 03:12:00,
2013-12-24 22:18:00,29.5,18.4,30.13,WNW,291,1.0,3.0,63,0.00,,,0.00,Wunderground v.1.15,2013-12-25 03:18:00,
2013-12-24 22:24:00,29.4,18.3,30.13,West,269,1.0,3.0,63,0.00,,,0.00,Wunderground v.1.15,2013-12-25 03:24:00,
2013-12-24 22:30:00,29.5,18.1,30.13,NW,307,2.0,3.0,62,0.00,,,0.00,Wunderground v.1.15,2013-12-25 03:30:00,
2013-12-24 22:36:00,29.4,18.0,30.13,West,276,1.0,3.0,62,0.00,,,0.00,Wunderground v.1.15,2013-12-25 03:36:00,
2013-12-24 22:42:00,29.4,18.0,30.13,NW,311,2.0,2.0,62,0.00,,,0.00,Wunderground v.1.15,2013-12-25 03:42:00,
2013-12-24 22:48:00,29.4,17.6,30.13,West,261,3.0,3.0,61,0.00,,,0.00,Wunderground v.1.15,2013-12-25 03:48:00,
2013-12-24 22:54:00,29.3,17.9,30.13,West,277,2.0,6.0,62,0.00,,,0.00,Wunderground v.1.15,2013-12-25 03:54:00,
2013-12-24 23:00:00,29.1,17.7,30.14,NNE,12,2.0,2.0,62,0.00,,,0.00,Wunderground v.1.15,2013-12-25 04:00:00,
2013-12-24 23:06:00,29.0,17.6,30.14,NW,320,2.0,3.0,62,0.00,,,0.00,Wunderground v.1.15,2013-12-25 04:06:00,
2013-12-24 23:12:00,28.9,17.5,30.14,NW,325,1.0,2.0,62,0.00,,,0.00,Wunderground v.1.15,2013-12-25 04:12:00,
2013-12-24 23:18:00,28.7,17.3,30.14,WNW,300,1.0,2.0,62,0.00,,,0.00,Wunderground v.1.15,2013-12-25 04:18:00,
2013-12-24 23:24:00,28.5,17.5,30.14,West,276,1.0,3.0,63,0.00,,,0.00,Wunderground v.1.15,2013-12-25 04:24:00,
2013-12-24 23:30:00,28.3,17.7,30.14,West,272,1.0,1.0,64,0.00,,,0.00,Wunderground v.1.15,2013-12-25 04:30:00,
2013-12-24 23:38:00,28.2,17.9,30.14,West,281,1.0,2.0,65,0.00,,,0.00,Wunderground v.1.15,2013-12-25 04:38:00,
2013-12-24 23:44:00,28.1,17.8,30.14,WNW,288,1.0,1.0,65,0.00,,,0.00,Wunderground v.1.15,2013-12-25 04:44:00,
2013-12-24 23:52:00,28.2,18.3,30.14,West,266,2.0,5.0,66,0.00,,,0.00,Wunderground v.1.15,2013-12-25 04:52:00,
2013-12-24 23:58:00,28.4,18.5,30.14,West,266,2.0,5.0,66,0.00,,,0.00,Wunderground v.1.15,2013-12-25 04:58:00,